Glendive, MT

8:03 PM MST on December 08, 2019 (GMT -0700)
Dawson Community

Weather History for KGDV - November, 2019

Change the Weather History Date:

Thursday, November 14, 2019

  Actual Average Record
Temperature  
Mean Temperature 31 °F -  
Max Temperature 39 °F 39 °F 66 °F (2016)
Min Temperature 23 °F 19 °F -18 °F (2014)
Degree Days  
Heating Degree Days 34    
Month to date heating degree days 574  
Year to date heating degree days 7249  
Moisture  
Dew Point 30 °F    
Average Humidity 97    
Maximum Humidity 100    
Minimum Humidity 86    
Precipitation  
Precipitation 0.00 in - - ()
Month to date precipitation 0.27  
Year to date precipitation 18.05  
Sea Level Pressure  
Sea Level Pressure 30.16 in    
Wind  
Wind Speed 6 mph (South)    
Max Wind Speed 10 mph    
Max Gust Speed -    
Visibility 3 miles    
Events Fog    
Averages and records for this station are not official NWS values.
T = Trace of Precipitation, MM = Missing Value Source: NWS Daily Summary

Daily Weather History Graph

Daily Weather History Graph

Search for Another Location

Airport or City:

Astronomy

Nov. 14, 2019 Rise Set
Actual Time 7:01 AM MST 4:25 PM MST
Civil Twilight 6:28 AM MST 4:58 PM MST
Nautical Twilight 5:51 AM MST 5:35 PM MST
Astronomical Twilight 5:15 AM MST 6:11 PM MST
Moon 6:07 PM MST (11/14) 9:04 AM MST (11/14)
Length of Visible Light 10h 30m
Length of Day
9h 24m
Waning Gibbous, 95% of the Moon is Illuminated
Nov 14
Waning Gibbous
Nov 19
Last Quarter
Nov 26
New
Dec 3
First Quarter
Dec 11
Full

Hourly Weather History & Observations

Time (MST) Temp. Windchill Dew Point Humidity Pressure Visibility Wind Dir Wind Speed Gust Speed Precip Events Conditions
12:56 AM 27.0 °F 18.7 °F 26.1 °F 96% 30.24 in 10.0 mi SW 8.1 mph - N/A   Clear
1:56 AM 26.1 °F 17.6 °F 25.0 °F 96% 30.25 in 10.0 mi SW 8.1 mph - N/A   Clear
2:56 AM 25.0 °F 17.1 °F 25.0 °F 100% 30.24 in 7.0 mi SSE 6.9 mph - N/A   Clear
3:30 AM 26.6 °F 17.5 °F 24.8 °F 93% 30.15 in 1.8 mi South 9.2 mph - N/A   Clear
3:37 AM 24.8 °F 15.3 °F 24.8 °F 100% 30.15 in 3.0 mi SSW 9.2 mph - N/A   Clear
3:49 AM 24.8 °F 16.9 °F 24.8 °F 100% 30.15 in 2.5 mi SSW 6.9 mph - N/A   Partly Cloudy
3:51 AM 24.8 °F 17.9 °F 23.0 °F 93% 30.15 in 1.0 mi SSW 5.8 mph - N/A   Mist
3:53 AM 24.8 °F 19.1 °F 23.0 °F 93% 30.15 in 0.5 mi SSW 4.6 mph - N/A Fog Light Freezing Fog
3:56 AM 23.0 °F 18.4 °F 21.9 °F 96% 30.24 in 0.2 mi SW 3.5 mph - N/A Fog Light Freezing Fog
4:56 AM 24.1 °F 16.0 °F 23.0 °F 96% 30.25 in 0.2 mi South 6.9 mph - N/A Fog Light Freezing Fog
5:56 AM 28.0 °F 18.6 °F 27.0 °F 96% 30.24 in 0.2 mi South 10.4 mph - N/A Fog Light Freezing Fog
6:56 AM 28.9 °F 22.8 °F 28.0 °F 96% 30.25 in 0.2 mi SSW 5.8 mph - N/A Fog Light Freezing Fog
7:56 AM 30.0 °F 22.4 °F 28.9 °F 96% 30.27 in 0.2 mi SSW 8.1 mph - N/A Fog Light Freezing Fog
8:56 AM 30.9 °F 22.8 °F 30.0 °F 96% 30.27 in 0.2 mi SSW 9.2 mph - N/A Fog Light Freezing Fog
9:56 AM 30.9 °F 22.8 °F 30.9 °F 100% 30.27 in 0.2 mi South 9.2 mph - N/A Fog Light Freezing Fog
10:56 AM 33.1 °F 26.1 °F 33.1 °F 100% 30.27 in 0.2 mi South 8.1 mph - N/A Fog Fog
11:56 AM 34.0 °F 27.2 °F 33.1 °F 96% 30.25 in 0.2 mi South 8.1 mph - N/A Fog Fog
12:56 PM 34.0 °F 27.2 °F 34.0 °F 100% 30.23 in 0.2 mi South 8.1 mph - N/A Fog Fog
1:26 PM 35.6 °F 29.9 °F 35.6 °F 100% 30.13 in 0.8 mi SSE 6.9 mph - N/A   Overcast
1:30 PM 35.6 °F 31.7 °F 35.6 °F 100% 30.13 in 1.2 mi SE 4.6 mph - N/A   Mostly Cloudy
1:33 PM 35.6 °F 30.7 °F 35.6 °F 100% 30.13 in 3.0 mi ESE 5.8 mph - N/A   Mostly Cloudy
1:37 PM 35.6 °F 29.9 °F 35.6 °F 100% 30.13 in 0.8 mi SSE 6.9 mph - N/A   Mostly Cloudy
1:40 PM 35.6 °F 30.7 °F 35.6 °F 100% 30.13 in 0.2 mi South 5.8 mph - N/A Fog Fog
1:56 PM 35.1 °F 29.3 °F 34.0 °F 96% 30.21 in 0.2 mi SE 6.9 mph - N/A Fog Fog
2:22 PM 37.4 °F 32.1 °F 35.6 °F 93% 30.11 in 0.8 mi South 6.9 mph - N/A   Mostly Cloudy
2:24 PM 37.4 °F 32.8 °F 35.6 °F 93% 30.12 in 3.0 mi South 5.8 mph - N/A   Mostly Cloudy
2:41 PM 37.4 °F 31.4 °F 35.6 °F 93% 30.11 in 10.0 mi South 8.1 mph - N/A   Partly Cloudy
2:56 PM 39.0 °F 35.7 °F 36.0 °F 89% 30.20 in 10.0 mi SSE 4.6 mph - N/A   Clear
3:56 PM 37.9 °F 34.4 °F 35.1 °F 89% 30.19 in 10.0 mi SSE 4.6 mph - N/A   Clear
4:56 PM 37.9 °F - 34.0 °F 86% 30.18 in 10.0 mi Calm Calm - N/A   Clear
5:56 PM 35.1 °F 30.1 °F 32.0 °F 89% 30.17 in 10.0 mi SSW 5.8 mph - N/A   Clear
6:56 PM 32.0 °F - 30.9 °F 96% 30.17 in 10.0 mi Calm Calm - N/A   Clear
7:56 PM 34.0 °F - 32.0 °F 92% 30.16 in 10.0 mi Calm Calm - N/A   Clear
8:40 PM 33.8 °F - 32.0 °F 93% 30.08 in 1.8 mi Calm Calm - N/A   Clear
8:43 PM 32.0 °F - 32.0 °F 100% 30.08 in 0.8 mi Calm Calm - N/A   Clear
8:56 PM 33.1 °F - 32.0 °F 96% 30.15 in 0.5 mi Calm Calm - N/A Fog Fog
9:07 PM 32.0 °F - 32.0 °F 100% 30.07 in 1.0 mi Calm Calm - N/A   Clear
9:17 PM 30.2 °F - 30.2 °F 100% 30.07 in 0.5 mi Calm Calm - N/A Fog Light Freezing Fog
9:34 PM 30.2 °F - 30.2 °F 100% 30.07 in 1.0 mi Calm Calm - N/A   Clear
9:40 PM 32.0 °F - 32.0 °F 100% 30.07 in 2.0 mi Calm Calm - N/A   Clear
9:53 PM 32.0 °F - 30.2 °F 93% 30.07 in 1.0 mi Calm Calm - N/A   Clear
9:56 PM 30.9 °F - 30.9 °F 100% 30.15 in 0.8 mi Calm Calm - N/A   Clear
10:04 PM 30.2 °F - 30.2 °F 100% 30.07 in 1.5 mi Calm Calm - N/A   Clear
10:07 PM 32.0 °F - 30.2 °F 93% 30.07 in 3.0 mi Calm Calm - N/A   Clear
10:56 PM 30.9 °F - 30.9 °F 100% 30.14 in 5.0 mi Calm Calm - N/A   Clear
11:05 PM 30.2 °F - 30.2 °F 100% 30.06 in 1.8 mi Calm Calm - N/A   Clear
11:37 PM 30.2 °F 26.7 °F 30.2 °F 100% 30.06 in 0.5 mi SSW 3.5 mph - N/A Fog Light Freezing Fog
11:47 PM 28.4 °F 24.6 °F 28.4 °F 100% 30.06 in 0.2 mi SSW 3.5 mph - N/A Fog Light Freezing Fog
11:56 PM 27.0 °F 23.0 °F 27.0 °F 100% 30.14 in 0.2 mi SSW 3.5 mph - N/A Fog Light Freezing Fog